Overview Statistics Trail Chart Weather Telemetry Raw packets
 

This is the latest recevied weather packets stored in our database for station/object KB9PVH-8. If no packets are shown the sender has not sent any weather packets the latest 10 day(s).

<< 17 18 19 20 21 22 23 >>
Time Temp. Humidity Pressure Rain* Wind** Luminosity Snow
1788302531 28.33° C - - 0 mm 4.47 m/s, ° - -
1788301822 28.33° C - - 0 mm 4.92 m/s, ° - -
1788301691 28.33° C - - 0 mm 4.92 m/s, ° - -
1788300850 28.89° C - - 0 mm 2.24 m/s, ° - -
1788300011 29.44° C - - 0 mm 4.02 m/s, ° - -
1788299363 29.44° C - - 0 mm 5.81 m/s, ° - -
1788299171 29.44° C - - 0 mm 5.81 m/s, ° - -
1788297710 30° C - - 0 mm 8.05 m/s, ° - -
1788297491 30° C - - 0 mm 8.05 m/s, ° - -
1788296666 30° C - - 0 mm 7.15 m/s, ° - -
1788295812 30.56° C - - 0 mm 11.18 m/s, ° - -
1788293291 31.67° C - - 0 mm 14.31 m/s, ° - -
1788292452 31.67° C - - 0 mm 14.75 m/s, ° - -
1788289932 32.22° C - - 0 mm 18.78 m/s, ° - -
1788289091 31.11° C - - 0 mm 15.2 m/s, ° - -
1788288252 31.67° C - - 0 mm 15.2 m/s, ° - -
1788286573 31.67° C - - 0 mm 8.94 m/s, ° - -
1788285731 30° C - - 0 mm 36.21 m/s, ° - -
1788284050 30° C - - 0 mm 39.79 m/s, ° - -
1788282371 29.44° C - - 0 mm 13.86 m/s, ° - -
1788280690 29.44° C - - 0 mm 16.99 m/s, ° - -
1788279116 28.33° C - - 0 mm 25.03 m/s, ° - -
1788278981 28.33° C - - 0 mm 25.03 m/s, ° - -
1788278144 27.78° C - - 0 mm 12.07 m/s, ° - -
1788277429 27.78° C - - 0 mm 16.09 m/s, ° - -

* Rain latest hour (hover to see other rain measurements)
** Current wind speed in m/s (hover to see current wind gust speed)